Location: C?r?st?u
(46.1667°N, 22.6500°E)
Time: 17:30:54
(UTC+00:00)

Daily predictions for brighter satellites

Satellite Brightness Start Highest point End
(mag) Time Altitude Azimuth Time Altitude Azimuth Time Altitude Azimuth
BREEZE-M DEB (TANK) 4.1 18:28:12 10° W 18:32:26 68° SSW 18:41:04 10° ESE
ISS -3.3 18:30:18 10° SW 18:33:29 40° SE 18:36:40 10° ENE
Cosmos 2082 Rocket 2.6 18:28:27 10° NNW 18:33:56 51° ENE 18:39:25 10° SE
CZ-4C R/B 3.3 18:27:47 10° NW 18:35:03 69° WSW 18:43:25 10° SSE
Cosmos 1943 Rocket 3.8 18:34:44 10° SE 18:37:45 15° E 18:40:47 10° ENE
SPOT 3 Rocket 4.0 18:33:02 10° SE 18:37:57 48° ENE 18:42:53 10° N
MOS 1-B Rocket 4.3 18:36:04 10° NNE 18:43:09 84° WNW 18:49:12 10° SSW
NOSS 3-4 (A) 4.0 18:37:03 10° NW 18:44:02 80° NE 18:51:51 10° SE
NOSS 3-4 (C) 4.0 18:37:10 10° NW 18:44:09 80° NE 18:51:58 10° SE
BREEZE M DEB (TANK) 2.6 18:42:03 10° WNW 18:47:43 59° N 18:50:04 10° E
Cosmos 1777 Rocket 4.4 18:45:07 10° SSW 18:50:18 71° WNW 18:55:31 10° NNE
Cosmos 44 4.2 18:45:14 10° NNW 18:50:29 45° NE 18:55:23 11° ESE
Ariane Rocket 3.3 18:49:11 10° S 18:54:12 68° WSW 18:59:17 10° NNW
Iridium 4 Rocket 4.3 18:49:55 10° SSE 18:55:24 43° E 19:00:56 10° NNE
deb Kosmos-1763 4.4 18:52:22 10° NNW 18:55:52 60° WSW 18:59:20 10° S
Cosmos 1437 4.0 18:53:44 10° SSW 18:56:25 38° WNW 18:59:06 10° N
ATLAS 2AS CENTAUR R/B 3.1 18:49:58 10° NW 18:57:21 62° NE 19:03:41 12° SE
USA 305 3.9 18:54:03 10° WNW 18:57:59 37° SW 19:01:47 11° SSE
Cosmos 2278 Rocket 2.4 18:52:39 10° SSW 18:58:19 76° WNW 19:04:00 10° NNE
COSMOS 2406 3.7 18:53:11 10° NNW 18:58:45 58° WSW 19:04:18 10° S
Cosmos 1515 Rocket 3.5 18:55:11 10° S 18:59:34 77° E 19:03:57 10° NNE
Cosmos 1271 Rocket 3.0 18:56:44 10° S 19:00:37 51° E 19:04:31 10° NNE
Cosmos 1633 Rocket 4.3 18:57:41 10° NNW 19:01:52 42° W 19:06:02 10° SSW
Cosmos 2369 Rocket 4.0 19:01:04 11° ESE 19:02:46 12° E 19:04:57 10° ENE
Cosmos 158 Rocket 3.8 19:01:08 10° NNW 19:06:03 83° ENE 19:10:38 12° SSE
Cosmos 1536 3.9 19:02:31 10° NNE 19:06:06 29° ENE 19:08:41 15° SE
Cosmos 1869 Rocket 4.4 19:02:15 10° N 19:06:15 35° ENE 19:09:21 15° SE
Cosmos 2228 Rocket 3.6 19:03:10 10° SSE 19:07:18 39° E 19:11:31 10° NNE
Cosmos 1898 Rocket 4.2 19:04:42 10° SSE 19:09:29 36° ESE 19:14:20 10° NE
Resurs 01 Rocket 1.8 19:07:45 10° S 19:12:11 77° WSW 19:16:38 10° NNW
CRYOSAT 2 4.4 19:08:16 10° S 19:13:09 88° W 19:18:05 10° N
Cosmos 1666 2.6 19:10:22 10° N 19:14:06 87° W 19:17:31 12° S
Cosmos 923 Rocket 4.1 19:10:17 10° NNW 19:15:35 73° ENE 19:19:55 16° SSE
USA 306 4.4 19:14:01 10° WNW 19:17:37 27° SW 19:20:47 12° S
Terra 3.2 19:16:34 14° ESE 19:19:37 24° ENE 19:23:25 10° N
Meteor 2-6 Rocket 4.3 19:16:09 10° SSW 19:21:36 79° W 19:27:14 10° N
SL-24 R/B - RUBIN 2 4.0 19:16:15 10° NW 19:21:44 71° NE 19:25:17 19° SE
DNEPR-1 R/B 4.4 19:16:52 10° S 19:22:40 45° ESE 19:27:31 10° NE
Cosmos 1818 4.1 19:17:33 10° NNW 19:22:56 52° NE 19:27:02 17° ESE
Tianhe-1 1.9 19:20:51 10° WSW 19:23:41 32° S 19:24:48 24° SE
Cosmos 1812 3.7 19:20:28 10° SSW 19:24:12 48° WNW 19:27:58 10° N
CARTOSAT-1 4.0 19:21:53 18° SE 19:24:45 46° ENE 19:28:53 10° N
Cosmos 1833 Rocket 4.0 19:19:39 10° NW 19:24:47 36° WSW 19:29:52 10° S
Cosmos 1900 4.4 19:20:58 10° SSW 19:25:59 61° ESE 19:30:58 10° NE
Cosmos 2084 Rocket 3.6 19:24:59 10° NW 19:29:14 65° NE 19:32:06 21° SE
IGS 5A 4.2 19:28:09 10° S 19:32:10 51° W 19:36:14 10° NNW
Cosmos 1933 Rocket 4.3 19:29:43 10° NNW 19:33:56 51° W 19:38:09 10° S
SJ 16-02 2.7 19:31:15 10° SW 19:35:27 42° WNW 19:39:42 10° N
Meteor 1-27 Rocket 3.8 19:35:35 10° S 19:41:25 75° E 19:47:21 10° NNE
CZ-2C R/B 3.9 19:38:36 10° N 19:43:08 75° WNW 19:47:44 10° SSW
Cosmos 1743 3.2 19:44:47 10° N 19:48:32 45° ENE 19:50:00 30° SE
Cosmos 1733 Rocket 3.9 19:46:06 10° N 19:50:03 34° ENE 19:51:42 25° ESE
ERS-1 Rocket 3.0 19:49:16 24° SSE 19:52:14 67° ENE 19:57:15 10° N
SL-24 DEB 4.4 19:51:21 27° SE 19:53:39 55° E 19:58:11 10° N
Cosmos 2112 Rocket 4.1 19:48:35 10° NNW 19:53:58 84° WSW 19:57:14 24° SSE
SPOT 5 3.1 19:51:32 24° SSE 19:54:40 70° ENE 20:00:00 10° N
ERBS 2.1 19:51:55 10° NW 19:55:14 84° NE 19:56:16 41° SE
ARIANE 5 R/B 2.6 19:55:47 25° S 19:58:18 76° WSW 20:02:39 10° NNW
Cosmos 1238 Rocket 4.1 19:54:42 10° N 20:00:09 44° ENE 20:02:19 28° SE
SPOT 1/Viking Rocket 4.1 19:56:31 16° S 20:00:34 53° W 20:05:39 10° NNW
USA 245 3.4 20:00:07 27° SW 20:00:35 30° W 20:02:48 10° NNW
Spot 2 Rocket 3.7 19:57:54 21° S 20:01:15 69° WSW 20:06:18 10° NNW
Cosmos 1937 Rocket 3.4 19:58:04 15° SSW 20:02:23 73° ESE 20:07:35 10° NNE
Cosmos 2297 3.7 19:58:32 10° SSW 20:04:14 87° WNW 20:09:57 10° NNE
Gbstr 26 Del rocket 4.2 19:59:11 10° WNW 20:06:54 79° SSW 20:10:53 26° SE
ISS -2.6 20:07:01 10° W 20:10:16 46° NNW 20:13:33 10° ENE
Cosmos 1340 Rocket 3.1 20:12:58 10° NNW 20:17:01 62° W 20:18:40 33° SSW
Cosmos 2082 Rocket 3.8 20:13:06 10° NW 20:17:43 27° WSW 20:21:44 12° SSW
Cosmos 1867 3.9 20:15:58 31° SSE 20:18:01 44° ESE 20:23:12 10° NE
Cosmos 2154 Rocket 4.5 20:12:43 10° NNW 20:18:53 58° W 20:23:27 18° SSW
Cosmos 1680 Rocket 4.3 20:13:58 10° NNW 20:19:00 44° WSW 20:22:04 22° SSW
Okean 1 3.3 20:19:29 46° SSE 20:20:25 62° E 20:24:22 10° NNE
Lacrosse 5 3.9 20:23:02 12° E 20:23:02 12° E 20:23:46 10° E
Cosmos 1943 Rocket 2.2 20:15:05 10° SSW 20:20:43 86° WNW 20:26:21 10° NNE
Nadezhda 1 Rocket 4.5 20:15:10 10° SSW 20:21:22 60° WNW 20:27:29 10° N
H-2A R/B 3.4 20:17:22 10° NNE 20:21:31 66° ESE 20:22:45 43° SSE
Cosmos 962 Rocket 4.4 20:15:55 10° N 20:22:05 90° WNW 20:25:27 29° S
Cosmos 1515 3.5 20:21:56 48° S 20:22:54 80° E 20:26:42 10° N
Cosmos 1461 3.3 20:18:32 10° SW 20:23:14 76° NW 20:27:53 10° NNE
Cosmos 1656 Rocket 4.2 20:27:14 34° SE 20:28:22 38° ESE 20:33:26 10° NE
Okean 1-7 4.4 20:32:07 24° E 20:32:10 24° E 20:35:36 10° NE
BREEZE-M R/B 2.4 20:31:30 10° WNW 20:33:55 57° NNE 20:33:56 57° NNE
Cosmos 1544 4.4 20:30:46 10° NNW 20:34:04 33° W 20:35:19 26° SW
ATLAS CENTAUR R/B 2.1 20:35:24 31° E 20:35:24 31° E 20:37:52 10° NE
CZ-4B DEB 4.4 20:35:14 59° SW 20:35:26 61° W 20:38:38 10° NNW
Cosmos 1862 Rocket 3.4 20:37:29 48° S 20:38:40 83° E 20:43:00 10° N
Cosmos 372 Rocket 3.8 20:38:32 30° SSW 20:41:05 88° ESE 20:46:14 10° NNE
SL-27 R/B 3.8 20:39:02 10° N 20:41:57 27° ENE 20:42:01 27° ENE
Cosmos 1607 4.0 20:38:47 25° SSW 20:42:36 64° ESE 20:49:02 10° NE
Cosmos 2369 Rocket 2.1 20:42:46 28° SSW 20:45:50 82° ESE 20:51:32 10° NNE
ATLAS 2AS CENTAUR R/B 3.8 20:41:33 10° NW 20:47:54 34° WSW 20:51:07 23° SSW
Cosmos 44 Rocket 4.2 20:50:41 10° NNW 20:55:45 47° NE 20:57:51 30° E
Cosmos 2298 Rocket 4.1 20:55:59 47° SSE 20:57:05 57° ESE 21:02:18 10° NNE
Terra 2.6 20:55:27 31° SW 20:57:07 43° W 21:01:41 10° NNW
Cosmos 2366 rocket 3.9 20:51:07 10° N 20:57:22 87° W 20:59:53 39° S
Cosmos 494 Rocket 4.4 20:54:06 10° NNW 20:59:11 53° ENE 21:00:38 40° ESE
Cosmos 1975 2.7 20:57:14 10° NNW 21:01:14 78° W 21:01:34 71° SSW
Cosmos 2181 Rocket 4.0 20:58:38 32° SSW 21:01:42 77° W 21:07:51 10° N
Meteor 1-18 Rocket 4.2 21:00:09 35° SSW 21:02:38 77° WNW 21:08:13 10° N
Meteor 2-9 Rocket 4.4 20:57:17 10° NNW 21:02:56 65° W 21:04:57 39° SSW
RESURS DK-1 2.3 21:11:35 10° NNW 21:15:44 68° WSW 21:15:49 68° SW
Okean 3 4.1 21:22:42 41° E 21:22:42 41° E 21:26:26 10° NNE
Cosmos 1356 Rocket 3.9 21:19:12 10° N 21:23:25 51° ENE 21:23:38 50° E
Cosmos 2150 Rocket 3.9 21:22:25 51° SSW 21:23:50 88° ESE 21:29:08 10° NNE
Cosmos 1378 3.9 21:25:54 42° ENE 21:25:54 42° ENE 21:28:48 10° NNE
Cosmos 2263 4.4 21:23:08 29° SW 21:26:07 70° WNW 21:31:56 10° NNE
Meteor 1-12 Rocket 4.4 21:22:08 10° N 21:27:56 66° ENE 21:29:24 48° SE
Cosmos 1125 Rocket 3.4 21:27:37 59° S 21:28:35 78° ESE 21:33:48 10° NNE
ALOS 2 3.0 21:31:08 49° E 21:31:32 51° ENE 21:35:49 10° N
Cosmos 1805 4.5 21:28:27 10° N 21:31:50 32° ENE 21:31:50 32° ENE
COSMOS 2487 4.0 21:29:38 10° N 21:32:17 27° NE 21:32:17 27° NE
Cosmos 2227 Rocket 4.5 21:31:48 10° N 21:35:36 18° NE 21:39:24 10° E
Cosmos 2297 Rocket 4.1 21:33:28 10° N 21:37:53 22° NE 21:42:07 11° E
COSMOS 2455 4.1 21:32:42 10° NNW 21:38:13 36° NE 21:42:04 18° E
Spot 4 3.8 21:38:11 65° SSW 21:38:50 78° WSW 21:43:43 10° NNW
Cosmos 1300 Rocket 4.2 21:37:10 10° N 21:41:23 44° ENE 21:41:34 44° E
Meteor 2-4 Rocket 4.1 21:39:42 36° SW 21:41:48 57° WNW 21:47:17 10° N
Nadezhda 3 Rocket 3.9 21:40:50 50° S 21:42:37 82° E 21:48:49 10° N
ISS -1.8 21:44:31 10° WNW 21:47:35 31° N 21:50:00 14° ENE
Cosmos 1766 4.3 21:48:17 10° N 21:51:45 36° ENE 21:51:45 36° ENE
Sich 1 Rocket 3.5 21:56:34 10° N 22:01:08 81° E 22:01:13 80° ESE
BREEZE-M DEB (TANK) 4.1 21:58:06 10° WNW 22:00:29 29° NNW 22:00:29 29° NNW
Lacrosse 5 1.7 22:02:09 67° SW 22:02:50 86° SE 22:07:57 10° NE
SeaSat 1 4.0 22:05:42 10° NE 22:09:01 21° E 22:09:01 21° E
Okean 1-7 4.2 22:08:56 31° W 22:09:34 32° WNW 22:13:27 10° N
Okean 2 Rocket 3.1 22:06:43 10° N 22:11:08 71° E 22:11:08 71° E
ATLAS CENTAUR R/B 3.3 22:11:29 16° W 22:13:20 23° NW 22:16:28 10° NNE
Cosmos 2151 Rocket 3.8 22:08:56 10° N 22:13:24 59° ENE 22:13:33 58° E
Meteor 1-23 Rocket 4.2 22:12:35 59° S 22:13:44 79° E 22:19:34 10° NNE
NOSS 2-1 (E) 4.3 22:08:49 10° NW 22:13:56 75° SW 22:15:25 54° SSE
Cosmos 1842 4.2 22:22:36 38° ENE 22:22:36 38° ENE 22:25:40 10° NNE
PSLV R/B 4.3 22:21:34 10° NNE 22:25:21 41° E 22:25:21 41° E
USA 81 4.1 22:20:27 10° N 22:25:44 66° E 22:26:35 56° SE
USA 215 4.0 22:19:49 10° E 22:26:05 51° NNE 22:32:21 10° NW
Cosmos 1269 Rocket 3.9 22:23:11 10° NNW 22:28:27 68° WSW 22:28:55 64° SW
Cosmos 1733 3.8 22:24:50 10° NNW 22:27:56 53° NW 22:27:56 53° NW
Cosmos 2219 4.2 22:23:32 10° NNW 22:28:56 41° NE 22:31:59 23° ESE
Cosmos 2369 Rocket 4.4 22:26:25 10° W 22:30:35 21° NW 22:34:47 10° N
Cosmos 1934 Rocket 4.0 22:24:43 10° NNW 22:30:48 68° W 22:32:08 52° SSW
Cosmos 1378 Rocket 4.0 22:31:58 49° E 22:31:58 49° E 22:35:58 10° NNE
Cosmos 2251 Rocket 4.5 22:29:11 10° N 22:34:09 41° ENE 22:36:10 29° ESE
COBE Rocket 4.5 22:38:52 44° WSW 22:39:17 45° W 22:44:15 10° NNW
Cosmos 1400 Rocket 3.0 22:36:19 10° N 22:40:04 70° NNE 22:40:04 70° NNE
Lacrosse 4 Rocket 3.7 22:42:11 15° E 22:42:11 15° E 22:44:12 10° ENE
Thor Agena Rocket 3.6 22:37:42 10° NNE 22:42:59 79° WNW 22:43:56 60° SW
Cosmos 1707 4.0 22:45:53 31° ENE 22:45:53 31° ENE 22:48:56 10° NNE
Cosmos 1758 4.3 22:45:27 10° N 22:49:17 38° ENE 22:49:33 37° E
Cosmos 1315 Rocket 4.1 22:48:04 10° N 22:51:44 33° ENE 22:52:13 32° E
Cosmos 1697 Rocket 3.9 22:52:02 27° ESE 22:52:50 28° ESE 22:57:31 10° NE
BREEZE-M DEB (TANK) 3.7 22:54:00 55° SE 22:54:01 55° SE 23:03:32 10° ENE
Meteor 1-22 Rocket 4.4 22:49:37 10° NNW 22:55:40 71° W 22:57:03 53° SSW
Cosmos 371 Rocket 3.8 22:57:11 44° ESE 22:57:29 44° ESE 23:02:07 10° NNE
Cosmos 1726 2.6 22:54:08 10° N 22:57:18 55° NE 22:57:18 55° NE
Okean 1 Rocket 2.9 22:57:27 10° N 23:01:52 90° ESE 23:01:53 89° SSE
Cosmos 1674 Rocket 3.6 23:03:14 64° W 23:03:23 65° W 23:07:50 10° N
Cosmos 1980 Rocket 3.9 23:05:54 18° ESE 23:07:22 19° E 23:11:17 10° NE
Cosmos 1727 Rocket 4.0 23:10:28 49° S 23:12:20 88° W 23:18:45 10° N
Helios 1A 3.1 23:15:54 59° ESE 23:16:19 64° ENE 23:20:26 10° N
Cosmos 1932 4.4 23:14:38 46° SW 23:16:43 87° NW 23:23:06 10° NE
SL-24 R/B 3.9 23:16:38 77° SSE 23:16:56 88° ENE 23:21:11 10° NNW
Cosmos 1674 4.0 23:18:31 31° E 23:18:36 31° E 23:22:00 10° NNE
Cosmos 2227 Rocket 2.1 23:14:52 10° NNW 23:20:34 84° ENE 23:22:33 42° SSE
Cosmos 1626 4.2 23:20:18 17° E 23:20:45 18° E 23:23:17 10° NE
Cosmos 1656 3.5 23:20:17 57° SSW 23:21:28 87° ESE 23:27:03 10° NNE
Okean 2 3.6 23:22:15 57° WNW 23:22:15 57° WNW 23:26:22 10° N
CZ-4 R/B 3.9 23:17:36 10° NNE 23:22:22 63° ESE 23:23:05 56° SE
Cosmos 2297 Rocket 2.1 23:16:52 10° NNW 23:22:33 75° WSW 23:23:53 53° S
COSMOS 2455 3.0 23:18:34 10° NW 23:24:22 50° WSW 23:25:11 47° SW
ISS -1.8 23:21:27 10° WNW 23:22:52 23° NW 23:22:52 23° NW
APEX 4.3 23:23:44 10° NNW 23:28:19 61° ENE 23:31:28 25° SE
MOZ.5/SAFIR/RUBIN 5/SL-8 4.0 23:29:29 44° SE 23:30:47 63° ENE 23:35:24 10° N
Timation 1 Rocket 4.4 23:25:43 10° NNW 23:31:44 77° ENE 23:35:00 28° SE
ADEOS II 4.2 23:29:12 10° NE 23:32:40 18° E 23:35:37 12° SE
Cosmos 1459 Rocket 3.9 23:28:10 10° N 23:34:26 88° E 23:36:45 41° S
Cosmos 1455 Rocket 3.2 23:31:37 10° N 23:35:57 66° E 23:36:48 52° SE
Cosmos 2369 4.3 23:35:07 37° SSE 23:36:45 46° ESE 23:42:13 10° NE
Cosmos 1725 Rocket 4.4 23:32:31 10° N 23:38:41 58° ENE 23:42:14 25° SSE
Cosmos 2082 4.0 23:33:13 10° NNW 23:38:53 64° ENE 23:42:47 21° SE
SL-16 R/B 3.1 23:34:51 19° SE 23:39:20 55° ENE 23:45:25 10° N
USA 276 3.4 23:39:53 36° NNW 23:40:24 39° N 23:43:25 10° ENE
TSX-5 3.9 23:39:23 10° NW 23:42:26 58° WNW 23:42:26 58° WNW
Cosmos 1953 2.4 23:40:49 10° N 23:44:48 70° E 23:45:19 61° SE
Lacrosse 5 3.5 23:41:45 10° W 23:46:19 32° NNW 23:50:54 10° NE
Cosmos 614 Rocket 3.9 23:41:37 10° NNW 23:46:41 65° WSW 23:47:41 53° SSW
Cosmos 1470 4.1 23:43:51 10° NNW 23:46:48 28° WNW 23:46:48 28° WNW
SeaSat 1 2.7 23:42:26 10° NNE 23:47:18 60° WNW 23:48:47 41° WSW
Cosmos 2016 Rocket 4.0 23:43:50 10° N 23:50:05 80° E 23:53:05 33° SSE
Cosmos 304 Rocket 3.7 23:51:19 54° S 23:52:22 78° ESE 23:57:11 10° NNE
Cosmos 2056 Rocket 4.2 23:51:07 32° SSE 23:52:46 42° ESE 23:57:35 10° NE
Resurs 1-4 Rocket 2.5 23:49:21 10° NNE 23:54:33 56° E 23:56:32 35° SSE
